www.pogodaiklimat.ru

Погода и климат >> Архив погоды >> Россия >> Воронежская область >> Калач


ПОГОДА в Калаче

  • Прогноз погоды в Калаче
  • Монитор погоды в Калаче

АРХИВ ПОГОДЫ в Калаче

Время (UTC), дата Ветер
(напр.,м/с)
 
Видим.   Явления Облачность Т
(С)
Тd
(С)
f
(%)
Тe
(С)
Тes
(С)
Комфортность P
(гПа)
Po
(гПа)
Тmin
(С)
Tmax
(С)
R
(мм)
R24
(мм)
S
(см)
18 19.05 штиль 0 10 км ясно +14.4 +7.5 63 +14 +14 1015.7 1004.8
21 19.05 штиль 0 10 км ясно +10.7 +7.1 78 +10 +10 1017.0 1005.9
00 20.05 штиль 0 10 км ясно +7.5 +5.0 84 +7 +7 1017.9 1006.6
03 20.05 штиль 0 10 км ясно +8.8 +5.0 77 +8 +10 1019.0 1007.8 +4.8
06 20.05 ЮЗ 1 20 км 3/0
[Ci fib]
+17.4 +4.3 42 +18 +29 1019.7 1008.8
09 20.05 С 3 20 км 6/0
[Ci fib]
+20.7 +0.5 26 +21 +33 комфорт 1019.6 1008.8
12 20.05 С 2 20 км 6/0
[Ci fib]
+22.0 +1.9 27 +22 +32 комфорт 1019.1 1008.3
15 20.05 СВ 4 20 км 4/0
[Ci fib]
+20.7 +0.1 25 +21 +22 комфорт 1019.2 1008.4 +22.6
18 20.05 штиль 0 10 км 5/0
[Ci fib]
+13.0 +2.5 49 +13 +13 1020.3 1009.2
21 20.05 штиль 0 10 км 3/0
[Ci fib]
+6.8 +4.0 82 +6 +6 1021.4 1010.1
00 21.05 штиль 0 10 км 1/0
[Ci fib]
+4.0 +2.5 90 +3 +3 1021.7 1010.2
03 21.05 штиль 0 10 км 1/0
[Ci fib]
+6.4 +2.8 78 +6 +7 1022.3 1011.0 +2.7
06 21.05 ЮЗ 1 20 км 3/0
[Ci fib]
+17.1 +3.3 40 +18 +29 1022.5 1011.5
09 21.05 Ю 2 20 км 6/0
[Ci fib]
+21.2 +1.5 27 +21 +36 комфорт 1021.5 1010.7
12 21.05 Ю 2 20 км 3/0
[Ci fib]
+23.1 +2.3 26 +23 +34 комфорт 1020.4 1009.7
15 21.05 Ю 1 20 км 3/0
[Ci fib]
+22.8 +1.7 25 +22 +25 комфорт 1019.2 1008.5 +23.8
18 21.05 штиль 0 10 км 8/0
[Ci fib]
+15.0 +5.1 52 +15 +15 1018.9 1007.9
21 21.05 штиль 0 10 км 6/0
[Ci fib]
+8.6 +6.9 89 +8 +8 1019.2 1008.0
00 22.05 штиль 0 10 км 8/0
[Ci fib]
+7.1 +5.8 91 +6 +6 1018.4 1007.1
03 22.05 штиль 0 10 км 10/0
[Cc]
+7.6 +5.8 88 +7 +8 1017.7 1006.4 +5.8
06 22.05 Ю 3 20 км 10/0
[Ac trans Cs]
+19.8 +7.3 44 +21 +27 комфорт 1016.2 1005.4
09 22.05 Ю 4 20 км 10/3 600 м
[Cu med, cong Ac trans Cs]
+21.2 +7.8 42 +22 +26 комфорт 1014.8 1004.1
12 22.05 Ю 5
{10}
20 км 10/5 600 м
[Sc Ac und]
+22.7 +3.6 29 +23 +24 комфорт 1013.4 1002.7
15 22.05 Ю 5 20 км 10/0 2000 м
[Ac trans Cc]
+22.8 +2.7 27 +22 +23 комфорт 1012.0 1001.4 +24.2
18 22.05 штиль 0 10 км 9/0
[Ac trans]
+17.4 +4.9 44 +17 +17 1011.7 1000.9
21 22.05 штиль 0 10 км 6/0
[Ac trans]
+11.2 +5.8 69 +11 +11 1010.3 999.3
00 23.05 штиль 0 10 км 10/4 600 м
[Sc Ac und]
+10.9 +6.0 72 +10 +10 1009.1 998.1
03 23.05 штиль 0 10 км 10/10 600 м
[Sc]
+12.1 +8.0 76 +12 +12 1008.2 997.2 +9.2
06 23.05 ЮЗ 2 10 км 10/10 800 м
[Sc]
+14.4 +11.4 82 +14 +14 1007.2 996.4
09 23.05 ЮЗ 1 20 км 10/10 450 м
[Cb calv]
+15.2 +13.2 88 +16 +16 1007.7 996.7
12 23.05 ЮЗ 4 10 км {ливн. осадки} 8/3 300 м
[Cb calv Ci fib]
+18.3 +14.7 80 +19 +23 1006.2 995.5
15 23.05 ЮЗ 4 20 км 8/1 300 м
[Cb calv Ci fib]
+20.3 +12.5 61 +22 +24 комфорт 1005.3 994.7 +22.5 0.8
18 23.05 Ю 1 10 км 3/0
[Ci fib]
+15.2 +12.7 85 +16 +16 1005.9 995.1
21 23.05 штиль 0 10 км ясно +13.0 +11.9 93 +12 +12 1006.0 995.1
00 24.05 штиль 0 10 км 4/0
[Ci fib]
+11.8 +11.4 97 +11 +11 1006.1 995.2
03 24.05 штиль 0 10 км 1/0
[Ci fib]
+12.6 +11.9 95 +12 +14 1006.4 995.5 +10.1
06 24.05 СЗ 2 20 км 3/0
[Ci fib]
+20.4 +13.2 63 +23 +33 комфорт 1006.9 996.3
09 24.05 СЗ 2 20 км 5/5 600 м
[Cu med, cong]
+24.3 +14.6 55 +27 +35 жарко 1007.6 997.1
12 24.05 СВ 4 20 км 9/3 300 м
[Cb calv Ac trans]
+25.4 +15.9 56 +29 +31 душно 1007.5 997.0
15 24.05 СВ 5 20 км 6/3 300 м
[Cb calv Ci fib]
+24.4 +12.8 48 +26 +27 жарко 1008.0 997.5 +26.6
18 24.05 штиль 0 10 км в посл. час гроза 9/5 300 м
[Cb calv Cs]
+19.3 +14.3 73 +21 +21 комфорт 1009.9 999.2
21 24.05 В 3 10 км 3/0
[Cs]
+17.0 +9.8 63 +17 +17 1010.5 999.7
00 25.05 В 2 10 км 10/10 600 м
[Sc]
+15.7 +10.4 71 +16 +16 1010.7 999.9
03 25.05 В 3 10 км 8/0 2000 м
[Ac trans Ci fib]
+15.3 +11.2 77 +15 +15 1011.5 1000.6 +15.3
06 25.05 ЮВ 5
{11}
20 км 8/0
[Cc]
+18.2 +11.5 65 +18 +23 1011.8 1001.1 +15.0
09 25.05 ЮВ 4
{10}
20 км 10/4 600 м
[Cu Sc Cs]
+20.0 +11.3 57 +22 +27 комфорт 1011.5 1000.8
12 25.05 ЮВ 6-11
{13}
20 км 10/0
[Cs]
+21.7 +12.8 57 +24 +28 комфорт 1009.6 999.0
15 25.05 ЮВ 5
{12}
20 км 10/3 300 м
[Cb calv Cs]
+21.9 +12.8 56 +24 +25 комфорт 1008.7 998.1 +23.6
18 25.05 В 3 10 км 10/10 450 м
[Cb calv]
+19.5 +11.1 58 +21 +21 комфорт 1007.3 996.6
21 25.05 ЮВ 3 10 км 10/6 800 м
[Sc Ac und]
+17.6 +9.9 61 +18 +18 1006.7 995.9
00 26.05 В 1 10 км 9/3 600 м
[Sc Ac trans Ci fib]
+14.2 +10.4 78 +15 +15 1005.5 994.7
03 26.05 В 2 10 км 10/10 300 м
[Cb calv]
+14.2 +11.2 82 +14 +14 1004.4 993.6 +14.0
06 26.05 В 2 10 км {ливн. осадки} 10/10 300 м
[Cb calv]
+17.8 +15.4 86 +18 +18 1003.7 993.0
09 26.05 З 3 10 км в посл. час ливневой дождь 10/10 300 м
[Cb calv]
+16.9 +16.1 95 +17 +17 1003.5 992.7
12 26.05 З 3 10 км {ливн. осадки} 10/10 300 м
[Cb calv]
+18.6 +15.9 84 +20 +20 1003.1 992.4
15 26.05 З 2 10 км в посл. час ливневой дождь 9/8 300 м
[Cb calv Ci fib]
+18.2 +17.5 96 +19 +19 1003.8 993.1 +20.0 5

 

Местоположение метеостанции Калач (Воронежская область, Россия): широта 50.42 долгота 41.05 высота над уровнем моря 92 м.

В архиве по умолчанию представлена погода в Калаче за последнюю неделю. Архивные данные за месяц целиком и за предыдущие месяцы, начиная с января 2011 года, Вы можете получить, выбрав интересующий диапазон дат из раскрывающегося списка и нажав кнопку "Ввод!".


*Определитесь, кто Вы:
робот инопланетянин человек

Внимание! Время в таблицах - всемирное. Для получения местного времени необходимо прибавить поправку, которая равна 3 ч.

Смотрите также архив погоды в соседних городах и на ближайших метеорологических станциях:

Погода в Павловск (Воронежская область, Россия) (41 км)
Погода в Богучаре (Воронежская область, Россия) (64 км)
Погода в Казанской (Ростовская область, Россия) (69 км)
Погода в Каменной Степи (Воронежская область, Россия) (74 км)
Погода в Урюпинске (Волгоградская область, Россия) (79 км)
Погода в Новоаннинском (Волгоградская область, Россия) (116 км)
Погода в Анне (Воронежская область, Россия) (126 км)
Погода в Лисках (Воронежская область, Россия) (127 км)
Погода в Борисоглебске (Воронежская область, Россия) (128 км)
Погода в Чертково (Ростовская область, Россия) (132 км)

Пояснения к столбцам:

Ветер - указаны скорость ветра в м/с - средняя за 10 мин, порывы в срок и между сроками (в фигурных скобках) и направление, откуда дует ветер: С - северный, СВ - северо-восточный, В - восточный, ЮВ - юго-восточный, Ю - южный, ЮЗ - юго-западный, З - западный, СЗ - северо-западный.
Видимость - горизонтальная дальность видимости в метрах или километрах. При видимости от 1 до 10 км при отсутствии осадков обычно наблюдается дымка, при ухудшении видимости до 1 км и менее - туман. В сухую погоду видимость может ухудшаться дымом, пылью или мглою.
Явления - указаны атмосферные явления, наблюдавшиеся в срок или в последний час перед сроком; фигурными скобками обозначены явления, наблюдавшиеся между сроками (за 1-3 часа до срока); квадратными скобками обозначены град или гололедные отложения с указанием их диаметра в мм.
Облачность - указаны через наклонную черту общая и нижняя облачность в баллах и высота нижней границы облаков в метрах; квадратными скобками обозначены формы облаков: Ci - перистые, Cs - перисто-слоистые, Cc - перисто-кучевые, Ac - высококучевые, As - высокослоистые, Sc - слоисто-кучевые, Ns - слоисто-дождевые, Cu - кучевые, Cb - кучево-дождевые. Подробнее классификацию облаков см. в Атласе облаков (PDF).
T - Температура воздуха - температура, измеренная на высоте 2 м над землей.
Td - Температура точки росы - температура, при понижении до которой содержащийся в воздухе водяной пар достигнет насыщения.
f - Относительная влажность воздуха - влажноcть воздуха, измеренная на высоте 2 м над землей.
Te - Эффективная температура - температура, которую ощущает одетый по сезону человек в тени. Характеристика душности погоды. При расчете учитывается влияние влажности воздуха и скорости ветра на теплоощущения человека.
Tes - Эффективная температура на солнце - температура, которую ощущает человек, с поправкой на солнечный нагрев. Характеристика знойности погоды. Зависит от высоты солнца над горизонтом, облачности и скорости ветра. Ночью, в пасмурную погоду, а также при ветре 12 м/с и более поправка равна нулю.
P - Атмосферное давление - приведенное к уровню моря атмосферное давление.
Po - Атмосферное давление - измеренное на уровне метеостанции атмосферное давление.
Tmin - Минимальная температура - минимум температуры воздуха на высоте 2 м над землей.
Tmax - Максимальная температура - максимум температуры воздуха на высоте 2 м над землей.
R - Количество осадков - Количество выпавших осадков за период времени, мм. При наведении курсора мыши на число - период времени, за который выпало указанное количество осадков.
R24 - Количество осадков - Количество выпавших осадков за 24 часа, мм.
S - Снежный покров - Высота снежного покрова, см. При наведении курсора мыши на число - состояние снежного покрова и степень покрытия местности в баллах.